Погода Форт-Шевченко

Погода Форт-Шевченко : погода сейчас, прогноз погоды и архив. Всё, что Вы хотите узнать о погоде Форт-Шевченко!

Хотите узнать прогноз погоды Форт-Шевченко? Тогда Вам сюда: Погода Форт-Шевченко

Поиск расширенной информации на нашем сайте:

Другие новости

Новости СМИ2

Главная страница сайта

Новости сайта

03.07.2017

Напоминаем, что на нашем специализированном сайте Метеоцентр.Азия вы можете получить высокодетализированные автоматические прогнозы погоды по пунктам России, СНГ и мира в авиационном формате (включающие направление и скорость ветра, видимость, явления погоды, количество и форму облачности, нижнюю и верхнюю границу облачности).


Погода Форт-Шевченко - сегодня

Время (UTC), дата Ветер
(°,м/с) 
Видим.   Явления Облачность Т
(°С)
Тd
(°С)
f(%) Тe
(°С)
Pmin
(гПа)
dP
(гПа)
Po
(мм)
O2
(г/м3)
Тmin Tmax R s Состояние
почвы
18 18.01.18 110 (В) н/о    10/0 средняя 
[Ac As]
+0.5 -2.8 79 -4  1009.7  -1  760  306    +0.4       
21 18.01.18 110 (В) н/о    8/0 средняя 
[Ac cast]
-1.6 -2.4 94 -7  1008.4  -1.3  759  308           
00 19.01.18 090 (В) н/о    8/0 средняя 
[Ac trans]
-0.7 -5.5 70 -5  1008.3  -0.1  758  307           
03 19.01.18 090 (В) 10  н/о    4/0 средняя 
[Ac trans]
-0.9 -4.4 77 -6  1007.9  -0.4  758  307           
06 19.01.18 050 (СВ) 10 км    6/0 средняя 
[Ac trans]
-1 -4.6 77 -3  1009.3  1.4  759  308  -1         
09 19.01.18 050 (СВ) 10 км    4/0 средняя 
[Ac trans]
+0.4 -3.6 74 -1  1009.8  0.5  760  306           
12 19.01.18 050 (СВ) 10 км    6/0 средняя 
[Ac trans]
-0.5 -3.9 78 -4  1009.9  0.1  760  307           
15 19.01.18 070 (В) н/о    6/0 средняя 
[Ac trans]
-1.2 -4.1 81 -5  1011.4  1.5  761  308    +0.8       
18 19.01.18 070 (В) н/о    ясно 
-2 -4.8 81 -7  1012.4  762  310    +0.8       
21 19.01.18 050 (СВ) н/о    ясно 
-1.6 -4 84 -3  1013.4  762  309           
00 20.01.18 340 (С) н/о    ясно 
-3 -5.4 83 -3  1015  1.4  764  312           
03 20.01.18 360 (С) н/о    ясно 
-4.1 -6.4 84 -9  1016.8  1.8  765  314           
06 20.01.18 360 (С) 10 км    8/0 средняя 
[Ac trans]
-4.7 -7.5 81 -9  1020.3  3.5  767  315  -4.2         
09 20.01.18 360 (С) 10 км    8/0 средняя 
[Ac trans]
-3.9 -6.5 82 -8  1021.3  768  315           
12 20.01.18 340 (С) 10 км    6/0 средняя 
[Ac trans]
-3.3 -6.1 81 -7  1022.2  769  314           
15 20.01.18 020 (С) н/о    6/0 средняя 
[Ac trans]
-4 -6.6 82 -7  1022.6  0.4  769  315    -3       
18 20.01.18 050 (СВ) н/о    4/0 средняя 
[Ac trans]
-5.4 -8.3 80 -8  1023.3  0.7  770  317    -3       
21 20.01.18 050 (СВ) н/о    ясно 
-5.5 -8.1 82 -5  1022.5  -0.8  769  317           
00 21.01.18 090 (В) н/о    ясно 
-5.4 -8.3 80 -7  1021.9  -0.8  769  317           
03 21.01.18 050 (СВ) н/о    4/0 средняя 
[Ac trans]
-5.8 -8.4 82 -5  1020.3  -1.5  767  317           
06 21.01.18 160 (Ю) 10 км    6/0 средняя 
[Ac trans]
-5 -6.7 88 -6  1020  -0.3  767  316  -6         
09 21.01.18 140 (ЮВ) 10 км    6/0 средняя 
[Ac trans]
-2 -4.5 83 -5  1018.4  -1.6  766  311           
12 21.01.18 290 (З) 10 км    10/0 средняя 
[Ac As]
+0.5 -1.2 88 +1  1015.7  -2.7  764  307           
15 21.01.18 090 (В) н/о  дымка  10/10 300 м 
[St]
+2.5 +1.5 93 +2  1016.5  0.8  765  305    +2.7       
18 21.01.18 110 (В) н/о  дымка  10/10 300 м 
[St]
+4.2 +3.2 93 +2  1017  0.4  765  303    +2.7       
Время (UTC), дата Ветер
(°,м/с) 
Видим.   Явления Облачность Т
(°С)
Тd
(°С)
f(%) Тe
(°С)
Pmin
(гПа)
dP
(гПа)
Po
(мм)
O2
(г/м3)
Тmin Tmax R s Состояние
почвы

Для получения пояснительной информации подведите курсор к названию столбца.

ПОГОДА Форт-Шевченко - архив

Всё, что Вы хотите узнать о погоде Форт-Шевченко - удобно и подробно!

Выберите нужную дату (начиная с 1 января 2015* года) и нажмите кнопку "Найти".
Будут отображены архивные сводки погоды по пункту Форт-Шевченко, начиная с указанной даты.


Отображать данные в формате CSV (для использования в таблицах Excel)


Внимание! Наш архив погоды предназначен исключительно для личного некоммерческого использования в познавательных целях. Если Вам необходимы официальные справки о состоянии погоды (для производственных, юридических, коммерческих и т.п. целей), обращайтесь в органы Росгидромета.

*Примечание: данная дата относится к архиву по метеостанциям СССР (Россия, СНГ, Балтия).
Архив по метеостанциям Зарубежной Европы и Азии (кроме Китая) хранится 10 дней, по другим регионам земного шара (Китай, Африка, Америка, Австралия, Океания) - 1 день.

Форт-Шевченко - район местоположения метеостанции


Название, широта, долгота, высота метеостанции:
Форт-Шевченко 44.6°ш. 50.2°д. -25 м над ур. моря [Казахстан]

Дополнительная информация

В oтличие oт бoльшинства пoгoдных сайтoв мы публикуем пoдрoбную метеoинфoрмацию в детальнoм прoфессиoнальнoм фoрмате.

Характеристики температуры и влажнoсти вoздуха измеряются на высoте 2 м в тени вдали oт зданий и деревьев.
Скoрoсть ветра измеряется на высoте 10 м (на урoвне рoста челoвека скoрoсть ветра ниже в 1.5-2 раза). Если метеoстанция нахoдится в гoрoде или в лесу, тo скoрoсть ветра занижена на 2-4 м/с пo сравнению с oткрытым местoм. Скoрoсть ветра над акватoриями крупных рек и oзёр, а также на вершинах хoлмoв на 2-5 м/с выше, чем в oбычных услoвиях.
Атмoсфернoе давление в разных тoчках местнoсти мoжет значительнo oтличаться oт давления на метеoстанции, в зависимoсти oт услoвий рельефа (при пoдъёме на 10 м давление пoнижается примернo на 1 мм рт.ст.).